Regional Weather Roundup
Issued by NWS

Home | Current Version | Previous Version | Graphics & Text | Print | Product List | Glossary On
Versions: 1 2 3 4 5 6 7 8 9 10 11 12 13 14 15 16 17 18 19 20 21 22 23 24 25 26 27 28 29 30 31 32 33 34 35 36 37 38 39 40 41 42 43 44 45 46 47 48 49 50
792
ASUS45 KCYS 251110
RWRWY

WYOMING REGIONAL WEATHER ROUNDUP
NATIONAL WEATHER SERVICE CHEYENNE WY
500 AM MDT MON SEP 25 2017

NOTE:  "FAIR" INDICATES FEW OR NO CLOUDS BELOW 12,000 FEET
WITH NO SIGNIFICANT WEATHER AND/OR OBSTRUCTIONS TO VISIBILITY.

WYZ001-251200-
YELLOWSTONE NATIONAL PARK

CITY           SKY/WX    TMP DP  RH WIND       PRES   REMARKS
LK YELLOWSTONE NOT AVBL
W YELLOWSTONE  NOT AVBL

$$
WYZ002>013-054>058-071-098>099-251200-
NORTHERN WYOMING

CITY           SKY/WX    TMP DP  RH WIND       PRES   REMARKS
JACKSON        CLOUDY    34  33  96 CALM      30.11R
CODY           CLOUDY    39  35  86 CALM      30.11S
GREYBULL       LGT RAIN  43  43 100 CALM      30.09S
WORLAND        CLOUDY    43  43 100 SW3       30.10R
SHERIDAN       LGT RAIN  43  42  97 CALM      30.10S
BUFFALO        LGT RAIN  39  37  92 SE6       30.11S FOG     WCI  35
GILLETTE       CLOUDY    40  32  73 CALM      30.10S
HULETT         LGT RAIN  39  37  93 CALM      30.13R
NEWCASTLE      CLOUDY    41  39  93 CALM      30.13R

$$
WYZ014>020-022>026-101>103-251200-
CENTRAL WYOMING

CITY           SKY/WX    TMP DP  RH WIND       PRES   REMARKS
BIG PINEY      CLOUDY    32  32 100 CALM      30.11S
PINEDALE       LGT SNOW  32  32 100 CALM      30.12R
DUBOIS         LGT SNOW  32  32 100 CALM      30.10R
LANDER         CLOUDY    37  36  96 SE5       30.10R WCI  33
RIVERTON       LGT RAIN  38  37  97 S5        30.11S WCI  34
CASPER         LGT RAIN  36  34  92 CALM      30.11S
DOUGLAS        CLOUDY    39  37  92 CALM      30.12S

$$
WYZ021-027>030-104>119-251200-
SOUTHERN WYOMING

CITY           SKY/WX    TMP DP  RH WIND       PRES   REMARKS
EVANSTON       CLOUDY    34  34 100 SW7       30.13R FOG     WCI  28
FORT BRIDGER   CLOUDY    36  36 100 W10       30.14S WCI  28
ROCK SPRINGS   CLOUDY    35  33  92 CALM      30.10S
DIXON          FAIR      35  32  90 CALM      30.13S
RAWLINS        CLOUDY    34  32  92 CALM      30.10S
SARATOGA       CLOUDY    34  34 100 SE5       30.10F WCI  30
LARAMIE        FOG       30  30 100 S7        30.10S VSB 1/4 WCI  23
CHEYENNE       FOG       38  37  97 CALM      30.11R VSB 3/4
TORRINGTON     CLOUDY    42  41  96 NE5       30.11S
PINE BLUFFS    CLOUDY    39  39 100 MISG      30.11S FOG

$$




USA.gov is the U.S. government's official web portal to all federal, state and local government web resources and services.